Tracking 19484 objects as of 20-Jan-2019
HD Live streaming from Space Station
objects crossing your sky now

FENGYUN 1C DEB

Track FENGYUN 1C DEB now!
10-day predictions


NORAD ID: 30400
Int'l Code: 1999-025ADP
Perigee: 733.6 km
Apogee: 1,149.3 km
Inclination: 99.2 °
Period: 103.7 minutes
Semi major axis: 7312 km
RCS: 0.0229 m2 (small)
Launch date: May 10, 1999
Source: People's Republic of China (PRC)
Launch site: Taiyaun Space Center, China (TSC)

Note: This is SATELLITE DEBRIS
aabbcc
Your satellite tracking list
Your tracking list is empty




NASA's NSSDC Master Catalog

Two Line Element Set (TLE):
1 30400U 99025ADP 19019.75425387  .00000800  00000-0  51057-3 0  9992
2 30400  99.1622 295.5847 0284265   4.6896  50.8541 13.88377788604360
Source of the keplerian elements: AFSPC